Sand Point, AK

7:27 PM AKDT on August 22, 2017 (GMT -0800)
Sand Point

Weather History for PASD - January, 2012

Change the Weather History Date:

Friday, January 27, 2012

  Actual Average Record
Temperature  
Mean Temperature 27 °F -  
Max Temperature 46 °F 32 °F 46 °F (2012)
Min Temperature 8 °F 26 °F -4 °F (1989)
Degree Days  
Heating Degree Days 38    
Moisture  
Dew Point 9 °F    
Average Humidity 79    
Maximum Humidity 86    
Minimum Humidity 29    
Precipitation  
Precipitation 0.00 in - - ()
Sea Level Pressure  
Sea Level Pressure 29.92 in    
Wind  
Wind Speed 9 mph (NNE)    
Max Wind Speed 15 mph    
Max Gust Speed 23 mph    
Visibility 10 miles    
Events      
Averages and records for this station are not official NWS values.
T = Trace of Precipitation, MM = Missing Value Source: NWS Daily Summary

Daily Weather History Graph

Daily Weather History Graph

Search for Another Location

Airport or City:

Trip Planner

Search our weather history database for the weather conditions in past years. The results will help you decide how hot, cold, wet, or windy it might be!

Date:

Astronomy

Jan. 27, 2012 Rise Set
Actual Time 9:43 AM AKST 6:07 PM AKST
Civil Twilight 9:01 AM AKST 6:48 PM AKST
Nautical Twilight 8:17 AM AKST 7:33 PM AKST
Astronomical Twilight 7:34 AM AKST 8:16 PM AKST
Moon 10:43 AM AKST (1/27) No Moon Set
Length of Visible Light 9h 46m
Length of Day
8h 24m
Waxing Crescent, 21% of the Moon is Illuminated
Jan 27
Waxing Crescent
Jan 30
First Quarter
Feb 7
Full
Feb 14
Last Quarter
Feb 21
New

Hourly Weather History & Observations

Time (AKST) Temp. Windchill Dew Point Humidity Pressure Visibility Wind Dir Wind Speed Gust Speed Precip Events Conditions
12:16 AM 8.6 °F -4.7 °F -0.4 °F 67% 30.09 in 10.0 mi NNW 9.2 mph - N/A   Clear
12:36 AM 8.6 °F -3.7 °F 1.4 °F 73% 30.08 in 10.0 mi NNW 8.1 mph - N/A   Clear
12:56 AM 8.6 °F -5.5 °F 1.4 °F 73% 30.07 in 10.0 mi NNW 10.4 mph - N/A   Clear
1:16 AM 10.4 °F 2.2 °F 3.2 °F 73% 30.07 in 10.0 mi North 4.6 mph - N/A   Clear
1:36 AM 8.6 °F 2.0 °F 1.4 °F 73% 30.07 in 10.0 mi NE 3.5 mph - N/A   Clear
1:56 AM 10.4 °F 4.0 °F 3.2 °F 73% 30.07 in 10.0 mi North 3.5 mph - N/A   Clear
2:16 AM 10.4 °F 4.0 °F 3.2 °F 73% 30.06 in 10.0 mi NE 3.5 mph - N/A   Clear
2:36 AM 10.4 °F 0.8 °F 5.0 °F 79% 30.06 in 10.0 mi NNE 5.8 mph - N/A   Clear
2:56 AM 10.4 °F 2.2 °F 6.8 °F 85% 30.06 in 10.0 mi NE 4.6 mph - N/A   Partly Cloudy
3:16 AM 10.4 °F -0.4 °F 5.0 °F 79% 30.06 in 10.0 mi NNE 6.9 mph - N/A   Mostly Cloudy
3:36 AM 10.4 °F 0.8 °F 5.0 °F 79% 30.06 in 10.0 mi NE 5.8 mph - N/A   Scattered Clouds
3:56 AM 10.4 °F 0.8 °F 5.0 °F 79% 30.05 in 10.0 mi NNE 5.8 mph - N/A   Clear
4:16 AM 10.4 °F 0.8 °F 3.2 °F 73% 30.05 in 10.0 mi NNE 5.8 mph - N/A   Clear
4:36 AM 10.4 °F 2.2 °F 5.0 °F 79% 30.04 in 10.0 mi NNE 4.6 mph - N/A   Clear
4:56 AM 10.4 °F -3.3 °F 5.0 °F 79% 30.03 in 10.0 mi North 10.4 mph - N/A   Clear
5:16 AM 10.4 °F -2.4 °F 6.8 °F 85% 30.02 in 10.0 mi NNE 9.2 mph - N/A   Clear
5:36 AM 10.4 °F -0.4 °F 6.8 °F 85% 30.02 in 10.0 mi NNE 6.9 mph - N/A   Clear
5:56 AM 12.2 °F 2.9 °F 6.8 °F 79% 30.00 in 10.0 mi NNE 5.8 mph - N/A   Clear
6:16 AM 10.4 °F -0.4 °F 6.8 °F 85% 29.98 in 10.0 mi NNE 6.9 mph - N/A   Clear
6:36 AM 10.4 °F -1.5 °F 6.8 °F 85% 29.98 in 10.0 mi NNE 8.1 mph - N/A   Clear
6:56 AM 12.2 °F -0.2 °F 6.8 °F 79% 29.97 in 10.0 mi NNE 9.2 mph 17.3 mph N/A   Clear
7:16 AM 12.2 °F -0.2 °F 8.6 °F 85% 29.96 in 10.0 mi NNE 9.2 mph - N/A   Clear
7:36 AM 12.2 °F 0.7 °F 8.6 °F 85% 29.96 in 10.0 mi NNE 8.1 mph - N/A   Clear
7:56 AM 12.2 °F 0.7 °F 8.6 °F 85% 29.95 in 10.0 mi NNE 8.1 mph - N/A   Clear
8:16 AM 12.2 °F -1.8 °F 8.6 °F 85% 29.94 in 10.0 mi North 11.5 mph - N/A   Clear
8:36 AM 12.2 °F -1.0 °F 8.6 °F 85% 29.93 in 10.0 mi NNE 10.4 mph - N/A   Partly Cloudy
8:56 AM 14.0 °F 0.5 °F 10.4 °F 86% 29.92 in 10.0 mi NNE 11.5 mph - N/A   Scattered Clouds
9:16 AM 15.8 °F 3.4 °F 10.4 °F 79% 29.92 in 10.0 mi NNE 10.4 mph 17.3 mph N/A   Mostly Cloudy
9:36 AM 15.8 °F 2.7 °F 10.4 °F 79% 29.92 in 10.0 mi North 11.5 mph - N/A   Mostly Cloudy
9:56 AM 15.8 °F 2.7 °F 10.4 °F 79% 29.91 in 10.0 mi NNE 11.5 mph 18.4 mph N/A   Mostly Cloudy
10:16 AM 15.8 °F 2.1 °F 10.4 °F 79% 29.90 in 10.0 mi NNE 12.7 mph 18.4 mph N/A   Mostly Cloudy
10:36 AM 15.8 °F 1.4 °F 10.4 °F 79% 29.90 in 8.0 mi NNE 13.8 mph 18.4 mph N/A   Mostly Cloudy
10:56 AM 15.8 °F 0.9 °F 12.2 °F 86% 29.89 in 9.0 mi NNE 15.0 mph 21.9 mph N/A   Mostly Cloudy
11:16 AM 15.8 °F 0.9 °F 12.2 °F 86% 29.89 in 9.0 mi NNE 15.0 mph 21.9 mph N/A   Mostly Cloudy
11:36 AM 17.6 °F 3.7 °F 12.2 °F 79% 29.88 in 10.0 mi NNE 13.8 mph 23.0 mph N/A   Mostly Cloudy
12:06 PM 46.4 °F 40.4 °F 15.8 °F 29% 29.88 in 10.0 mi NNE 13.8 mph 18.4 mph N/A   Unknown
12:16 PM - - - N/A% 29.87 in 10.0 mi NNE 12.7 mph 18.4 mph N/A   Unknown
12:36 PM 19.4 °F 9.5 °F 15.8 °F 86% 29.87 in 10.0 mi NNE 8.1 mph - N/A   Mostly Cloudy
12:56 PM 19.4 °F 8.6 °F 15.8 °F 86% 29.86 in 9.0 mi NE 9.2 mph 17.3 mph N/A   Mostly Cloudy
1:16 PM 19.4 °F 9.5 °F 15.8 °F 86% 29.84 in 9.0 mi NE 8.1 mph - N/A   Mostly Cloudy
1:36 PM 21.2 °F 10.1 °F 17.6 °F 86% 29.83 in 9.0 mi NNE 10.4 mph 17.3 mph N/A   Overcast
1:56 PM 21.2 °F 8.9 °F 17.6 °F 86% 29.82 in 10.0 mi NNE 12.7 mph 18.4 mph N/A   Overcast
2:16 PM 21.2 °F 9.5 °F 17.6 °F 86% 29.81 in 10.0 mi NNE 11.5 mph 16.1 mph N/A   Overcast
2:36 PM 21.2 °F 10.1 °F 17.6 °F 86% 29.80 in 10.0 mi NNE 10.4 mph 18.4 mph N/A   Overcast
2:56 PM 19.4 °F 7.2 °F 15.8 °F 86% 29.80 in 10.0 mi NNE 11.5 mph 19.6 mph N/A   Overcast
3:16 PM 19.4 °F 7.2 °F 15.8 °F 86% 29.80 in 10.0 mi NNE 11.5 mph 18.4 mph N/A   Overcast
3:36 PM 19.4 °F 7.9 °F 14.0 °F 80% 29.79 in 10.0 mi NE 10.4 mph 19.6 mph N/A   Overcast
3:56 PM 19.4 °F 7.2 °F 14.0 °F 80% 29.78 in 10.0 mi NNE 11.5 mph 18.4 mph N/A   Mostly Cloudy
4:16 PM 19.4 °F 5.5 °F 12.2 °F 74% 29.77 in 10.0 mi NNE 15.0 mph 18.4 mph N/A   Mostly Cloudy
4:36 PM 19.4 °F 7.9 °F 12.2 °F 74% 29.77 in 10.0 mi NNE 10.4 mph 20.7 mph N/A   Mostly Cloudy
4:56 PM 19.4 °F 6.6 °F 12.2 °F 74% 29.76 in 10.0 mi NNE 12.7 mph 21.9 mph N/A   Mostly Cloudy
5:16 PM 19.4 °F 5.5 °F 10.4 °F 68% 29.75 in 10.0 mi NNE 15.0 mph 21.9 mph N/A   Mostly Cloudy
5:36 PM 19.4 °F 7.9 °F 10.4 °F 68% 29.74 in 10.0 mi NNE 10.4 mph 17.3 mph N/A   Mostly Cloudy
5:56 PM 19.4 °F 8.6 °F 6.8 °F 58% 29.73 in 10.0 mi NNE 9.2 mph 17.3 mph N/A   Mostly Cloudy
6:16 PM 17.6 °F 7.3 °F 10.4 °F 73% 29.73 in 10.0 mi NE 8.1 mph 16.1 mph N/A   Mostly Cloudy
6:36 PM 19.4 °F 7.9 °F 8.6 °F 63% 29.71 in 10.0 mi NNE 10.4 mph 17.3 mph N/A   Mostly Cloudy
6:56 PM 19.4 °F 6.0 °F 12.2 °F 74% 29.68 in 10.0 mi NE 13.8 mph 20.7 mph N/A   Overcast
7:16 PM 19.4 °F 4.5 °F 15.8 °F 86% 29.67 in 10.0 mi NNE 17.3 mph 23.0 mph N/A   Overcast
7:36 PM 19.4 °F 7.2 °F 15.8 °F 86% 29.66 in 10.0 mi NNE 11.5 mph 21.9 mph N/A   Overcast
7:56 PM 21.2 °F 10.1 °F 17.6 °F 86% 29.66 in 10.0 mi NNE 10.4 mph 18.4 mph N/A   Overcast
8:16 PM 21.2 °F 9.5 °F 17.6 °F 86% 29.65 in 9.0 mi NNE 11.5 mph 23.0 mph N/A   Overcast
8:36 PM 21.2 °F 7.3 °F 19.4 °F 93% 29.64 in 10.0 mi NNE 16.1 mph 23.0 mph N/A   Overcast
8:56 PM 21.2 °F 9.5 °F 19.4 °F 93% 29.66 in 10.0 mi NE 11.5 mph 20.7 mph N/A   Overcast
9:16 PM 23.0 °F 9.6 °F 21.2 °F 93% 29.65 in 8.0 mi NNE 16.1 mph 28.8 mph N/A   Overcast
9:36 PM 23.0 °F 11.1 °F 21.2 °F 93% 29.65 in 9.0 mi NNE 12.7 mph 25.3 mph N/A   Overcast
9:56 PM 23.0 °F 9.2 °F 21.2 °F 93% 29.63 in 7.0 mi NNE 17.3 mph 26.5 mph N/A   Overcast
10:16 PM 23.0 °F 9.6 °F 21.2 °F 93% 29.61 in 5.0 mi NE 16.1 mph 26.5 mph N/A   Overcast
10:36 PM 23.0 °F 11.1 °F 21.2 °F 93% 29.61 in 5.0 mi NE 12.7 mph 24.2 mph N/A   Overcast
10:56 PM 23.0 °F 10.1 °F 21.2 °F 93% 29.61 in 8.0 mi NNE 15.0 mph 26.5 mph N/A   Overcast
11:16 PM 23.0 °F 10.6 °F 21.2 °F 93% 29.60 in 8.0 mi NNE 13.8 mph 26.5 mph N/A   Overcast
11:36 PM 23.0 °F 12.4 °F 21.2 °F 93% 29.58 in 5.0 mi NE 10.4 mph 20.7 mph N/A   Overcast
11:56 PM 23.0 °F 12.4 °F 21.2 °F 93% 29.57 in 7.0 mi NE 10.4 mph 25.3 mph N/A   Overcast